Вернуться в каталог

JINJUSat 1B

JINJUSAT-1B

АктивенЛюбительское радиоSSO
NORAD 63210·PAYLOAD·🇰🇷 South Korea

Запущен Mar 15, 2025 с Vandenberg Space Force Base

Loading…

Ближайшие Пролёты (ближайшие 24 часа)

TLE

СвежийSource: AMSAT

Эпоха: Sep 14, 2026, 04:55 UTC

1 63210U 25052A   26257.20501510  .00013312  00000-0  38105-3 0  9992
2 63210  97.3867 154.1841 0005035 110.4742 249.7042 15.36055518 83750

Отслеживайте JINJUSat 1B в реальном времени с AllMySat

Download on the App Store